FW9287 Weather Reports


time (UTC)temp
C
wind
direction
speed
KPH
gust
KPH
rain 1hr
cm
rain 24hr
cm
rain mn
cm
humidity
%
barometer
mb
20260502170246 26 236 0.0 6.4 0.00 0.00 0.00 12 920.3
20260502170139 26 248 0.0 4.8 0.00 0.00 0.00 12 920.3
20260502164307 25 257 0.0 8.0 0.00 0.00 0.00 13 920.3
20260502164205 25 263 1.6 8.0 0.00 0.00 0.00 12 920.4
20260502164059 25 335 1.6 8.0 0.00 0.00 0.00 12 920.4
20260502163953 25 328 1.6 8.0 0.00 0.00 0.00 12 920.3
20260502163412 25 309 0.0 8.0 0.00 0.00 0.00 12 920.3
20260502163307 25 297 0.0 8.0 0.00 0.00 0.00 12 920.3
20260502162943 25 296 0.0 8.0 0.00 0.00 0.00 12 920.4
20260502162838 25 271 0.0 8.0 0.00 0.00 0.00 13 920.3
20260502162732 25 319 1.6 8.0 0.00 0.00 0.00 12 920.4
20260502162625 25 236 0.0 8.0 0.00 0.00 0.00 12 920.3
20260502162518 25 348 1.6 8.0 0.00 0.00 0.00 12 920.3
20260502162415 25 309 1.6 8.0 0.00 0.00 0.00 12 920.4
20260502162312 25 246 1.6 8.0 0.00 0.00 0.00 12 920.4
20260502162205 25 281 1.6 6.4 0.00 0.00 0.00 12 920.4
20260502162058 25 272 1.6 6.4 0.00 0.00 0.00 12 920.4
20260502161953 25 299 0.0 6.4 0.00 0.00 0.00 12 920.4
20260502161851 25 235 0.0 6.4 0.00 0.00 0.00 12 920.4
20260502161527 24 254 0.0 6.4 0.00 0.00 0.00 12 920.4
20260502161425 24 237 0.0 4.8 0.00 0.00 0.00 13 920.3
20260502161323 24 277 0.0 4.8 0.00 0.00 0.00 13 920.4
20260502161219 24 5 0.0 4.8 0.00 0.00 0.00 12 920.3
20260502161117 24 5 0.0 4.8 0.00 0.00 0.00 12 920.3
20260502161009 24 319 0.0 4.8 0.00 0.00 0.00 13 920.4
20260502160904 24 303 0.0 4.8 0.00 0.00 0.00 13 920.4
20260502160540 24 273 0.0 3.2 0.00 0.00 0.00 13 920.3
20260502160438 24 279 0.0 3.2 0.00 0.00 0.00 13 920.3
20260502160332 24 261 0.0 3.2 0.00 0.00 0.00 13 920.4
20260502160229 24 267 0.0 3.2 0.00 0.00 0.00 12 920.4
20260502152144 21 171 0.0 3.2 0.00 0.00 0.00 16 920.3
20260502152037 21 171 0.0 3.2 0.00 0.00 0.00 16 920.3
20260502151451 21 206 0.0 3.2 0.00 0.00 0.00 16 920.2
20260502151344 21 206 0.0 3.2 0.00 0.00 0.00 16 920.2
20260502151237 21 206 0.0 3.2 0.00 0.00 0.00 16 920.2
20260502151134 21 206 0.0 3.2 0.00 0.00 0.00 16 920.2
20260502151031 21 184 0.0 3.2 0.00 0.00 0.00 16 920.1
20260502150448 20 45 0.0 1.6 0.00 0.00 0.00 17 920.1
20260502150341 20 44 0.0 0.0 0.00 0.00 0.00 17 920.1
20260502150235 20 44 0.0 0.0 0.00 0.00 0.00 17 920.1
20260502150127 20 44 0.0 0.0 0.00 0.00 0.00 16 920.1
20260502130731 16 29 1.6 8.0 0.00 0.00 0.00 18 919.2
20260502130627 16 30 1.6 8.0 0.00 0.00 0.00 19 919.2
20260502130521 16 32 1.6 8.0 0.00 0.00 0.00 18 919.2
20260502130414 16 31 1.6 8.0 0.00 0.00 0.00 18 919.2
20260502123734 16 15 3.2 6.4 0.00 0.00 0.00 18 919.0
20260502123631 16 21 3.2 6.4 0.00 0.00 0.00 18 919.0
20260502123525 16 5 3.2 6.4 0.00 0.00 0.00 18 919.0
20260502123424 16 40 3.2 6.4 0.00 0.00 0.00 18 919.0
20260502123058 16 38 1.6 4.8 0.00 0.00 0.00 18 918.9
20260502122953 16 16 1.6 4.8 0.00 0.00 0.00 18 918.9
20260502122848 16 9 1.6 4.8 0.00 0.00 0.00 18 918.9
20260502122745 16 24 1.6 4.8 0.00 0.00 0.00 18 918.9
20260502122642 16 26 1.6 4.8 0.00 0.00 0.00 18 918.9
20260502122538 16 28 1.6 4.8 0.00 0.00 0.00 18 918.9
20260502122432 16 19 0.0 4.8 0.00 0.00 0.00 18 918.9
20260502122106 16 11 0.0 3.2 0.00 0.00 0.00 18 918.9
20260502122002 16 9 1.6 3.2 0.00 0.00 0.00 18 918.8
20260502121858 16 17 1.6 3.2 0.00 0.00 0.00 18 918.9
20260502121750 15 17 1.6 3.2 0.00 0.00 0.00 18 918.8
20260502121647 15 19 1.6 3.2 0.00 0.00 0.00 18 918.8
20260502121543 15 355 1.6 3.2 0.00 0.00 0.00 18 918.9
20260502121436 15 355 1.6 3.2 0.00 0.00 0.00 18 918.8
20260502121106 15 14 1.6 3.2 0.00 0.00 0.00 18 918.8
20260502121005 15 19 0.0 3.2 0.00 0.00 0.00 18 918.8
20260502120859 15 5 0.0 3.2 0.00 0.00 0.00 18 918.8
20260502120755 15 13 0.0 3.2 0.00 0.00 0.00 18 918.8
20260502120649 15 13 0.0 3.2 0.00 0.00 0.00 18 918.8
20260502120542 15 12 0.0 3.2 0.00 0.00 0.00 18 918.8
20260502120436 15 9 0.0 3.2 0.00 0.00 0.00 18 918.9
20260502120332 15 9 0.0 3.2 0.00 0.00 0.00 18 918.8
20260502120230 15 9 0.0 3.2 0.00 0.00 0.00 18 918.8
20260502120124 15 9 0.0 3.2 0.00 0.00 0.00 18 918.8
20260502115913 15 9 0.0 3.2 0.00 0.00 0.00 18 918.8
20260502115550 16 342 0.0 1.6 0.00 0.00 0.00 18 918.7
20260502115224 16 342 0.0 1.6 0.00 0.00 0.00 18 918.7
20260502115119 16 338 0.0 1.6 0.00 0.00 0.00 18 918.8
20260502115014 16 338 0.0 1.6 0.00 0.00 0.00 18 918.8
20260502114908 16 338 0.0 1.6 0.00 0.00 0.00 18 918.7
20260502114806 16 338 0.0 1.6 0.00 0.00 0.00 18 918.7
20260502114434 16 338 0.0 0.0 0.00 0.00 0.00 18 918.7
20260502114002 16 338 0.0 3.2 0.00 0.00 0.00 18 918.7
20260502113857 16 338 0.0 3.2 0.00 0.00 0.00 18 918.7
20260502113752 16 340 0.0 3.2 0.00 0.00 0.00 18 918.7
20260502113650 16 334 0.0 3.2 0.00 0.00 0.00 18 918.8
20260502113544 16 335 0.0 3.2 0.00 0.00 0.00 18 918.8
20260502113439 16 332 0.0 3.2 0.00 0.00 0.00 18 918.8
20260502113337 16 327 0.0 3.2 0.00 0.00 0.00 18 918.8
20260502113232 16 317 0.0 1.6 0.00 0.00 0.00 18 918.8
20260502113127 16 317 0.0 1.6 0.00 0.00 0.00 18 918.8
20260502113019 16 316 0.0 1.6 0.00 0.00 0.00 18 918.8
20260502112914 16 316 0.0 1.6 0.00 0.00 0.00 18 918.8
20260502112810 16 304 0.0 1.6 0.00 0.00 0.00 18 918.8
20260502112707 16 303 0.0 1.6 0.00 0.00 0.00 18 918.8
20260502112602 16 302 0.0 1.6 0.00 0.00 0.00 18 918.7
20260502112501 16 302 0.0 1.6 0.00 0.00 0.00 17 918.7
20260502112354 16 302 0.0 1.6 0.00 0.00 0.00 17 918.7
20260502112247 16 302 0.0 1.6 0.00 0.00 0.00 17 918.7
20260502112140 16 282 0.0 0.0 0.00 0.00 0.00 18 918.7
20260502111813 16 274 0.0 3.2 0.00 0.00 0.00 18 918.7
20260502111707 16 290 0.0 3.2 0.00 0.00 0.00 18 918.7
20260502111603 16 274 0.0 3.2 0.00 0.00 0.00 18 918.7
20260502111459 16 270 0.0 3.2 0.00 0.00 0.00 17 918.7
20260502111357 16 292 0.0 3.2 0.00 0.00 0.00 17 918.7
20260502111250 16 276 0.0 3.2 0.00 0.00 0.00 17 918.7
20260502111147 16 298 0.0 3.2 0.00 0.00 0.00 17 918.7
20260502110822 17 283 0.0 3.2 0.00 0.00 0.00 17 918.7
20260502110459 17 284 0.0 1.6 0.00 0.00 0.00 17 918.7
20260502110355 17 284 0.0 1.6 0.00 0.00 0.00 17 918.7
20260502110253 17 304 0.0 1.6 0.00 0.00 0.00 17 918.7
20260502110151 17 304 0.0 1.6 0.00 0.00 0.00 17 918.7
20260502110045 17 315 0.0 1.6 0.00 0.00 0.00 17 918.7
20260502105726 17 10 0.0 1.6 0.00 0.00 0.00 17 918.7
20260502105620 17 17 0.0 1.6 0.00 0.00 0.00 17 918.6
20260502105516 17 17 0.0 0.0 0.00 0.00 0.00 17 918.7
20260502105413 17 17 0.0 3.2 0.00 0.00 0.00 17 918.6
20260502105308 17 17 0.0 3.2 0.00 0.00 0.00 17 918.7
20260502105206 17 17 0.0 3.2 0.00 0.00 0.00 17 918.7
20260502105059 17 5 0.0 3.2 0.00 0.00 0.00 17 918.6
20260502104954 17 5 0.0 3.2 0.00 0.00 0.00 17 918.6
20260502104849 17 275 0.0 3.2 0.00 0.00 0.00 17 918.7
20260502104743 17 254 0.0 3.2 0.00 0.00 0.00 17 918.6
20260502104641 17 244 0.0 3.2 0.00 0.00 0.00 17 918.7
20260502104535 17 244 0.0 3.2 0.00 0.00 0.00 17 918.6
20260502104428 17 244 0.0 3.2 0.00 0.00 0.00 17 918.7
20260502104322 17 244 0.0 3.2 0.00 0.00 0.00 17 918.6
20260502104217 17 242 0.0 3.2 0.00 0.00 0.00 17 918.7
20260502104109 17 242 0.0 3.2 0.00 0.00 0.00 17 918.6
20260502104002 17 307 0.0 1.6 0.00 0.00 0.00 17 918.6
20260502103900 17 54 0.0 0.0 0.00 0.00 0.00 17 918.6
20260502103532 17 54 0.0 3.2 0.00 0.00 0.00 16 918.6
20260502103428 17 54 0.0 3.2 0.00 0.00 0.00 16 918.6
20260502103325 17 54 0.0 3.2 0.00 0.00 0.00 16 918.6
20260502103219 17 61 0.0 3.2 0.00 0.00 0.00 16 918.6
20260502103117 17 61 0.0 3.2 0.00 0.00 0.00 16 918.6
20260502103010 17 40 0.0 3.2 0.00 0.00 0.00 16 918.6
20260502102908 17 40 0.0 3.2 0.00 0.00 0.00 16 918.6
20260502102804 17 34 0.0 3.2 0.00 0.00 0.00 16 918.6
20260502102700 17 74 0.0 3.2 0.00 0.00 0.00 16 918.6
20260502102556 17 71 0.0 3.2 0.00 0.00 0.00 16 918.6
20260502102229 17 39 0.0 3.2 0.00 0.00 0.00 16 918.6
20260502101902 17 329 0.0 1.6 0.00 0.00 0.00 16 918.6
20260502101755 18 328 0.0 0.0 0.00 0.00 0.00 17 918.6
20260502101650 18 328 0.0 0.0 0.00 0.00 0.00 16 918.6
20260502101546 18 328 0.0 0.0 0.00 0.00 0.00 16 918.5
20260502101444 18 328 0.0 0.0 0.00 0.00 0.00 16 918.5
20260502101339 18 328 0.0 0.0 0.00 0.00 0.00 16 918.5
20260502101233 18 328 0.0 1.6 0.00 0.00 0.00 15 918.5
20260502101127 18 328 0.0 1.6 0.00 0.00 0.00 15 918.6
20260502101024 18 327 0.0 1.6 0.00 0.00 0.00 15 918.6
20260502100656 18 223 0.0 0.0 0.00 0.00 0.00 15 918.6
20260502100554 18 223 0.0 0.0 0.00 0.00 0.00 15 918.6
20260502100449 18 223 0.0 0.0 0.00 0.00 0.00 15 918.6
20260502100347 18 223 0.0 0.0 0.00 0.00 0.00 15 918.5
20260502100241 18 223 0.0 0.0 0.00 0.00 0.00 15 918.6
20260502100137 18 223 0.0 0.0 0.00 0.00 0.00 15 918.6
20260502091534 17 221 1.6 9.7 0.00 0.00 0.00 17 918.6
20260502091427 16 221 1.6 9.7 0.00 0.00 0.00 17 918.6
20260502091322 16 241 0.0 4.8 0.00 0.00 0.00 18 918.7
20260502090959 16 267 0.0 1.6 0.00 0.00 0.00 18 918.6
20260502090854 16 288 0.0 1.6 0.00 0.00 0.00 18 918.6
20260502090752 16 288 0.0 1.6 0.00 0.00 0.00 18 918.7
20260502090646 16 297 0.0 1.6 0.00 0.00 0.00 18 918.6
20260502090541 16 319 0.0 1.6 0.00 0.00 0.00 18 918.6
20260502090434 16 325 0.0 0.0 0.00 0.00 0.00 18 918.6
20260502090332 16 325 0.0 0.0 0.00 0.00 0.00 18 918.6
20260502090226 16 325 0.0 4.8 0.00 0.00 0.00 18 918.7
20260502090118 16 325 0.0 4.8 0.00 0.00 0.00 18 918.7
20260502071440 20 267 0.0 0.0 0.00 0.00 0.00 16 918.7
20260502071335 20 267 0.0 0.0 0.00 0.00 0.00 16 918.6
20260502071230 20 267 0.0 0.0 0.00 0.00 0.00 16 918.6
20260502071123 20 267 0.0 0.0 0.00 0.00 0.00 16 918.6
20260502071018 20 267 0.0 0.0 0.00 0.00 0.00 16 918.6
20260502070914 20 267 0.0 0.0 0.00 0.00 0.00 16 918.6
20260502070806 20 267 0.0 8.0 0.00 0.00 0.00 16 918.6
20260502070701 20 267 1.6 8.0 0.00 0.00 0.00 16 918.6
20260502070556 20 267 1.6 8.0 0.00 0.00 0.00 16 918.6
20260502070450 20 292 1.6 8.0 0.00 0.00 0.00 16 918.6
20260502070346 20 268 1.6 8.0 0.00 0.00 0.00 16 918.5
20260502070240 20 288 1.6 8.0 0.00 0.00 0.00 16 918.5
20260502070133 20 280 1.6 8.0 0.00 0.00 0.00 16 918.6
20260502065809 20 198 1.6 8.0 0.00 0.00 0.00 16 918.6
20260502065702 20 199 1.6 8.0 0.00 0.00 0.00 16 918.5
20260502065559 20 223 1.6 8.0 0.00 0.00 0.00 16 918.5
20260502065452 20 227 1.6 8.0 0.00 0.00 0.00 15 918.6
20260502065122 20 30 1.6 8.0 0.00 0.00 0.00 15 918.5
20260502065016 20 27 1.6 8.0 0.00 0.00 0.00 15 918.6
20260502064649 20 213 1.6 6.4 0.00 0.00 0.00 15 918.5
20260502064540 20 215 1.6 6.4 0.00 0.00 0.00 15 918.4
20260502064437 20 225 0.0 4.8 0.00 0.00 0.00 15 918.5
20260502064330 21 219 0.0 3.2 0.00 0.00 0.00 15 918.5
20260502064226 21 219 0.0 3.2 0.00 0.00 0.00 15 918.6
20260502064123 21 218 0.0 3.2 0.00 0.00 0.00 15 918.5
20260502064016 21 74 0.0 3.2 0.00 0.00 0.00 15 918.6
20260502063913 21 74 0.0 3.2 0.00 0.00 0.00 15 918.6
20260502063806 21 74 0.0 3.2 0.00 0.00 0.00 15 918.6
20260502063702 21 75 0.0 11.3 0.00 0.00 0.00 15 918.5
20260502063557 21 90 0.0 11.3 0.00 0.00 0.00 15 918.5
20260502063455 21 91 0.0 11.3 0.00 0.00 0.00 15 918.5
20260502063347 21 209 0.0 11.3 0.00 0.00 0.00 15 918.5
20260502063242 21 209 1.6 11.3 0.00 0.00 0.00 15 918.5
20260502063137 21 209 1.6 11.3 0.00 0.00 0.00 15 918.5
20260502062555 21 215 3.2 11.3 0.00 0.00 0.00 14 918.4
20260502062448 21 215 3.2 11.3 0.00 0.00 0.00 14 918.4
20260502062345 21 214 3.2 11.3 0.00 0.00 0.00 14 918.4
20260502062242 21 229 1.6 11.3 0.00 0.00 0.00 14 918.3
20260502062137 21 223 1.6 11.3 0.00 0.00 0.00 14 918.4
20260502062033 21 214 1.6 11.3 0.00 0.00 0.00 14 918.3
20260502061926 21 217 1.6 11.3 0.00 0.00 0.00 14 918.3
20260502061821 21 232 1.6 11.3 0.00 0.00 0.00 14 918.4
20260502061715 21 225 1.6 11.3 0.00 0.00 0.00 14 918.3
20260502061609 21 173 1.6 9.7 0.00 0.00 0.00 14 918.3
20260502061507 21 202 1.6 9.7 0.00 0.00 0.00 14 918.3
20260502061403 21 202 1.6 9.7 0.00 0.00 0.00 14 918.3
20260502061257 21 223 3.2 9.7 0.00 0.00 0.00 14 918.3
20260502061151 21 202 3.2 9.7 0.00 0.00 0.00 13 918.3
20260502061048 21 190 3.2 9.7 0.00 0.00 0.00 13 918.2
20260502060943 21 182 1.6 9.7 0.00 0.00 0.00 13 918.2
20260502060838 21 161 1.6 6.4 0.00 0.00 0.00 13 918.3
20260502060733 21 186 1.6 11.3 0.00 0.00 0.00 14 918.3
20260502060626 21 171 1.6 11.3 0.00 0.00 0.00 14 918.3
20260502060522 21 187 1.6 11.3 0.00 0.00 0.00 14 918.3
20260502060419 22 200 1.6 11.3 0.00 0.00 0.00 14 918.3
20260502060315 22 207 1.6 11.3 0.00 0.00 0.00 14 918.3
20260502060213 22 202 1.6 11.3 0.00 0.00 0.00 14 918.3
20260502060109 22 202 1.6 11.3 0.00 0.00 0.00 14 918.3
20260502060006 22 201 3.2 11.3 0.00 0.00 0.00 14 918.3
20260502055903 22 201 3.2 11.3 0.00 0.00 0.00 14 918.3
20260502055756 22 201 3.2 11.3 0.00 0.00 0.00 14 918.3
20260502055655 22 201 3.2 11.3 0.00 0.00 0.00 14 918.3
20260502055108 22 172 3.2 11.3 0.00 0.00 0.00 14 918.3
20260502054746 22 186 1.6 8.0 0.00 0.00 0.00 13 918.3
20260502054643 22 188 1.6 8.0 0.00 0.00 0.00 14 918.3
20260502054539 22 181 1.6 8.0 0.00 0.00 0.00 13 918.3
20260502054436 22 201 0.0 8.0 0.00 0.00 0.00 13 918.3
20260502054331 22 158 0.0 6.4 0.00 0.00 0.00 13 918.3
20260502054006 23 53 1.6 14.5 0.00 0.00 0.00 12 918.2
20260502053900 23 46 1.6 14.5 0.00 0.00 0.00 12 918.3
20260502053753 23 34 1.6 14.5 0.00 0.00 0.00 12 918.2
20260502053646 23 40 1.6 14.5 0.00 0.00 0.00 12 918.2
20260502053544 23 107 1.6 14.5 0.00 0.00 0.00 12 918.2
20260502053436 23 157 1.6 14.5 0.00 0.00 0.00 13 918.2
20260502053331 23 232 1.6 14.5 0.00 0.00 0.00 12 918.3
20260502053224 23 259 3.2 14.5 0.00 0.00 0.00 12 918.2
20260502053121 23 317 3.2 20.9 0.00 0.00 0.00 12 918.2
20260502053017 23 334 3.2 20.9 0.00 0.00 0.00 12 918.2
20260502052911 23 17 3.2 20.9 0.00 0.00 0.00 12 918.2
20260502052552 23 182 4.8 20.9 0.00 0.00 0.00 12 918.2
20260502052445 23 107 6.4 20.9 0.00 0.00 0.00 12 918.2
20260502052342 23 57 8.0 20.9 0.00 0.00 0.00 12 918.2
20260502052234 23 36 8.0 20.9 0.00 0.00 0.00 12 918.2
20260502051907 23 42 9.7 24.1 0.00 0.00 0.00 12 918.1
20260502051803 23 56 9.7 24.1 0.00 0.00 0.00 12 918.1
20260502051439 23 22 11.3 24.1 0.00 0.00 0.00 12 918.1
20260502051332 23 49 11.3 24.1 0.00 0.00 0.00 12 918.1
20260502051226 23 50 11.3 24.1 0.00 0.00 0.00 12 918.1
20260502050905 23 34 11.3 24.1 0.00 0.00 0.00 12 918.1
20260502050758 23 17 11.3 24.1 0.00 0.00 0.00 12 918.1
20260502050653 23 40 11.3 24.1 0.00 0.00 0.00 12 918.1
20260502050330 23 22 12.9 24.1 0.00 0.00 0.00 12 917.9
20260502050223 23 48 12.9 24.1 0.00 0.00 0.00 12 917.9
20260502050117 23 16 12.9 22.5 0.00 0.00 0.00 12 917.9
20260502050011 23 13 12.9 22.5 0.00 0.00 0.00 12 917.9
20260502045906 23 18 12.9 22.5 0.00 0.00 0.00 12 918.0
20260502045801 23 16 12.9 22.5 0.00 0.00 0.00 12 917.9
20260502045659 23 39 11.3 22.5 0.00 0.00 0.00 12 917.9
20260502045555 23 36 11.3 20.9 0.00 0.00 0.00 12 917.9
20260502045010 23 25 9.7 20.9 0.00 0.00 0.00 12 917.9
20260502044903 23 17 11.3 20.9 0.00 0.00 0.00 12 917.9
20260502044758 23 34 11.3 20.9 0.00 0.00 0.00 12 917.9
20260502044653 23 0 11.3 20.9 0.00 0.00 0.00 12 917.9
20260502044549 23 10 11.3 20.9 0.00 0.00 0.00 12 917.9
20260502044221 23 21 11.3 20.9 0.00 0.00 0.00 12 917.8
20260502044115 23 48 11.3 20.9 0.00 0.00 0.00 12 917.9
20260502044009 23 31 9.7 20.9 0.00 0.00 0.00 12 917.9
20260502043905 23 34 9.7 20.9 0.00 0.00 0.00 12 917.8
20260502043545 23 49 8.0 20.9 0.00 0.00 0.00 12 917.7
20260502043441 23 30 8.0 20.9 0.00 0.00 0.00 13 917.8
20260502042853 23 5 11.3 20.9 0.00 0.00 0.00 13 917.7
20260502042746 23 31 9.7 20.9 0.00 0.00 0.00 13 917.6
20260502042639 23 5 9.7 20.9 0.00 0.00 0.00 13 917.6
20260502042532 23 34 9.7 20.9 0.00 0.00 0.00 13 917.6
20260502042425 23 40 9.7 17.7 0.00 0.00 0.00 13 917.6
20260502042321 23 0 9.7 17.7 0.00 0.00 0.00 13 917.7
20260502041958 23 26 8.0 17.7 0.00 0.00 0.00 13 917.6
20260502041854 23 22 8.0 17.7 0.00 0.00 0.00 13 917.6
20260502041747 23 45 8.0 17.7 0.00 0.00 0.00 13 917.6
20260502041420 23 23 8.0 17.7 0.00 0.00 0.00 13 917.5
20260502041315 23 66 8.0 17.7 0.00 0.00 0.00 13 917.5
20260502041207 23 47 8.0 17.7 0.00 0.00 0.00 12 917.5
20260502041102 23 23 8.0 17.7 0.00 0.00 0.00 13 917.5
20260502040959 23 0 9.7 17.7 0.00 0.00 0.00 13 917.5
20260502040852 23 32 9.7 17.7 0.00 0.00 0.00 13 917.5
20260502040045 23 53 9.7 19.3 0.00 0.00 0.00 12 917.4
20260502035940 23 66 9.7 19.3 0.00 0.00 0.00 12 917.5
20260502035834 24 5 9.7 19.3 0.00 0.00 0.00 12 917.4
20260502035729 24 5 9.7 19.3 0.00 0.00 0.00 12 917.4
20260502035625 24 29 9.7 19.3 0.00 0.00 0.00 12 917.4
20260502035306 24 31 9.7 19.3 0.00 0.00 0.00 12 917.4
20260502034724 24 0 8.0 19.3 0.00 0.00 0.00 12 917.3
20260502034617 24 17 8.0 19.3 0.00 0.00 0.00 12 917.3
20260502034509 24 42 8.0 19.3 0.00 0.00 0.00 12 917.3
20260502034149 24 49 6.4 16.1 0.00 0.00 0.00 12 917.1
20260502034046 24 5 6.4 16.1 0.00 0.00 0.00 12 917.1
20260502033944 24 51 6.4 16.1 0.00 0.00 0.00 12 917.1
20260502033841 24 344 6.4 16.1 0.00 0.00 0.00 12 917.1
20260502033300 24 13 6.4 16.1 0.00 0.00 0.00 12 917.1
20260502033157 24 40 6.4 16.1 0.00 0.00 0.00 12 917.0
20260502033051 24 17 6.4 16.1 0.00 0.00 0.00 12 917.0
20260502032723 24 9 8.0 16.1 0.00 0.00 0.00 12 917.0
20260502032138 25 42 8.0 16.1 0.00 0.00 0.00 12 916.9
20260502031809 25 46 8.0 16.1 0.00 0.00 0.00 12 916.8
20260502031707 25 10 8.0 16.1 0.00 0.00 0.00 12 916.8
20260502031603 25 48 8.0 16.1 0.00 0.00 0.00 12 916.8
20260502031459 25 21 8.0 16.1 0.00 0.00 0.00 12 916.7
20260502031353 25 28 8.0 16.1 0.00 0.00 0.00 12 916.7
20260502031249 25 28 6.4 16.1 0.00 0.00 0.00 12 916.8
20260502031145 25 19 6.4 16.1 0.00 0.00 0.00 12 916.8
20260502031043 25 12 6.4 16.1 0.00 0.00 0.00 12 916.7
20260502030941 25 17 8.0 16.1 0.00 0.00 0.00 12 916.8
20260502030837 25 24 8.0 16.1 0.00 0.00 0.00 11 916.7
20260502030734 25 5 8.0 16.1 0.00 0.00 0.00 11 916.7
20260502030630 25 13 6.4 16.1 0.00 0.00 0.00 11 916.7
20260502030305 25 13 8.0 16.1 0.00 0.00 0.00 11 916.7
20260502025942 25 30 8.0 16.1 0.00 0.00 0.00 11 916.7
20260502025838 25 42 8.0 16.1 0.00 0.00 0.00 11 916.7
20260502025730 25 16 8.0 16.1 0.00 0.00 0.00 11 916.6
20260502025623 25 9 6.4 16.1 0.00 0.00 0.00 11 916.7
20260502025037 25 10 6.4 19.3 0.00 0.00 0.00 11 916.6
20260502024934 25 21 6.4 19.3 0.00 0.00 0.00 11 916.6
20260502024830 25 40 6.4 19.3 0.00 0.00 0.00 11 916.6
20260502024724 25 44 6.4 19.3 0.00 0.00 0.00 11 916.6
20260502024616 25 342 6.4 19.3 0.00 0.00 0.00 11 916.6
20260502024252 26 21 8.0 19.3 0.00 0.00 0.00 11 916.6
20260502024148 26 30 9.7 19.3 0.00 0.00 0.00 11 916.6
20260502024045 26 12 9.7 19.3 0.00 0.00 0.00 11 916.5
20260502023940 26 0 9.7 19.3 0.00 0.00 0.00 11 916.6
20260502023837 26 19 9.7 19.3 0.00 0.00 0.00 11 916.5
20260502023732 26 30 9.7 19.3 0.00 0.00 0.00 11 916.5
20260502023408 26 32 11.3 19.3 0.00 0.00 0.00 11 916.5
20260502023306 26 20 11.3 19.3 0.00 0.00 0.00 11 916.5
20260502023203 26 44 9.7 17.7 0.00 0.00 0.00 11 916.5
20260502023057 26 34 9.7 17.7 0.00 0.00 0.00 11 916.5
20260502022732 26 23 9.7 20.9 0.00 0.00 0.00 11 916.5
20260502022410 26 17 9.7 20.9 0.00 0.00 0.00 11 916.4
20260502022306 26 24 8.0 20.9 0.00 0.00 0.00 11 916.4
20260502021937 26 342 8.0 20.9 0.00 0.00 0.00 11 916.4
20260502021830 26 0 8.0 20.9 0.00 0.00 0.00 11 916.4
20260502021723 26 9 8.0 20.9 0.00 0.00 0.00 11 916.4
20260502021618 26 58 8.0 20.9 0.00 0.00 0.00 11 916.4
20260502021515 26 19 8.0 20.9 0.00 0.00 0.00 11 916.4
20260502021413 26 32 9.7 20.9 0.00 0.00 0.00 11 916.3
20260502021307 26 344 9.7 20.9 0.00 0.00 0.00 11 916.3
20260502021204 26 309 9.7 20.9 0.00 0.00 0.00 11 916.3
20260502021100 26 323 9.7 20.9 0.00 0.00 0.00 10 916.3
20260502020954 26 29 9.7 20.9 0.00 0.00 0.00 10 916.3
20260502020847 26 28 9.7 20.9 0.00 0.00 0.00 10 916.3
20260502020740 26 349 9.7 19.3 0.00 0.00 0.00 10 916.4
20260502020636 26 355 9.7 22.5 0.00 0.00 0.00 10 916.3
20260502020307 26 355 11.3 22.5 0.00 0.00 0.00 10 916.2
20260502015942 26 350 11.3 22.5 0.00 0.00 0.00 10 916.2
20260502015834 26 343 12.9 22.5 0.00 0.00 0.00 10 916.2
20260502015727 27 330 12.9 24.1 0.00 0.00 0.00 10 916.2
20260502015624 27 338 12.9 24.1 0.00 0.00 0.00 10 916.3
20260502015520 27 52 12.9 24.1 0.00 0.00 0.00 10 916.2
20260502015413 27 355 12.9 24.1 0.00 0.00 0.00 10 916.2
20260502015310 27 9 12.9 24.1 0.00 0.00 0.00 10 916.3
20260502015204 27 351 12.9 24.1 0.00 0.00 0.00 10 916.2
20260502014843 27 349 12.9 24.1 0.00 0.00 0.00 10 916.2
20260502014737 27 355 12.9 24.1 0.00 0.00 0.00 10 916.2
20260502014634 27 5 12.9 25.7 0.00 0.00 0.00 10 916.2
20260502014307 27 355 12.9 25.7 0.00 0.00 0.00 10 916.2
20260502014200 27 343 11.3 25.7 0.00 0.00 0.00 10 916.2
20260502014053 27 355 11.3 25.7 0.00 0.00 0.00 10 916.2
20260502013731 27 336 12.9 25.7 0.00 0.00 0.00 10 916.2
20260502013625 27 339 12.9 25.7 0.00 0.00 0.00 10 916.2
20260502013519 27 0 12.9 25.7 0.00 0.00 0.00 10 916.2
20260502013416 27 349 12.9 25.7 0.00 0.00 0.00 10 916.2
20260502013053 27 5 14.5 25.7 0.00 0.00 0.00 10 916.2
20260502012946 27 355 14.5 25.7 0.00 0.00 0.00 10 916.2
20260502012620 27 0 12.9 24.1 0.00 0.00 0.00 10 916.1
20260502012512 27 349 12.9 24.1 0.00 0.00 0.00 10 916.2
20260502012405 27 0 12.9 24.1 0.00 0.00 0.00 10 916.1
20260502012306 27 355 12.9 24.1 0.00 0.00 0.00 10 916.1
20260502012158 27 10 12.9 24.1 0.00 0.00 0.00 10 916.1
20260502012056 27 325 12.9 24.1 0.00 0.00 0.00 10 916.1
20260502011949 28 12 12.9 24.1 0.00 0.00 0.00 10 916.1
20260502011843 28 348 11.3 24.1 0.00 0.00 0.00 10 916.1
20260502011736 28 5 11.3 24.1 0.00 0.00 0.00 10 916.1
20260502011631 28 340 9.7 25.7 0.00 0.00 0.00 10 916.1
20260502011524 28 42 9.7 25.7 0.00 0.00 0.00 10 916.0
20260502011417 28 15 9.7 25.7 0.00 0.00 0.00 10 916.1
20260502011310 28 347 9.7 25.7 0.00 0.00 0.00 10 916.1
20260502011206 28 0 9.7 25.7 0.00 0.00 0.00 10 916.0
20260502011101 28 21 9.7 25.7 0.00 0.00 0.00 10 916.1
20260502010957 28 325 9.7 25.7 0.00 0.00 0.00 10 916.0
20260502010851 28 288 9.7 25.7 0.00 0.00 0.00 10 916.0
20260502010749 28 284 11.3 25.7 0.00 0.00 0.00 10 916.1
20260502010644 28 333 11.3 25.7 0.00 0.00 0.00 10 916.1
20260502010542 28 293 11.3 25.7 0.00 0.00 0.00 10 916.1
20260502010216 28 15 8.0 25.7 0.00 0.00 0.00 9 916.1
20260502010114 28 351 6.4 25.7 0.00 0.00 0.00 9 916.1
20260502010012 28 323 6.4 25.7 0.00 0.00 0.00 10 916.1
20260502005649 28 5 3.2 20.9 0.00 0.00 0.00 10 916.0
20260502005544 28 292 3.2 17.7 0.00 0.00 0.00 10 916.1
20260502005442 29 289 3.2 17.7 0.00 0.00 0.00 10 916.1
20260502005117 29 347 4.8 17.7 0.00 0.00 0.00 10 916.1
20260502005013 29 5 4.8 17.7 0.00 0.00 0.00 10 916.1
20260502004909 29 298 4.8 17.7 0.00 0.00 0.00 10 916.0
20260502004803 29 355 4.8 17.7 0.00 0.00 0.00 10 916.0
20260502004656 29 280 4.8 17.7 0.00 0.00 0.00 10 916.1
20260502004550 29 29 4.8 17.7 0.00 0.00 0.00 10 916.0
20260502004445 29 306 4.8 17.7 0.00 0.00 0.00 10 916.0
20260502004342 29 349 4.8 17.7 0.00 0.00 0.00 10 916.0
20260502004235 29 355 4.8 17.7 0.00 0.00 0.00 10 916.1
20260502003645 29 265 6.4 17.7 0.00 0.00 0.00 10 916.0
20260502003100 29 304 6.4 17.7 0.00 0.00 0.00 10 916.0
20260502002957 29 331 6.4 17.7 0.00 0.00 0.00 10 916.0
20260502002854 29 325 6.4 17.7 0.00 0.00 0.00 10 916.0
20260502002750 29 329 6.4 17.7 0.00 0.00 0.00 10 916.0
20260502002645 29 302 6.4 17.7 0.00 0.00 0.00 10 916.0
20260502002543 29 5 6.4 17.7 0.00 0.00 0.00 10 915.9
20260502002437 29 318 6.4 17.7 0.00 0.00 0.00 10 916.0
20260502001852 29 5 6.4 22.5 0.00 0.00 0.00 11 915.9
20260502001746 29 241 6.4 22.5 0.00 0.00 0.00 11 916.0
20260502001642 29 273 6.4 22.5 0.00 0.00 0.00 11 916.0
20260502001539 29 266 6.4 22.5 0.00 0.00 0.00 11 915.9
20260502001435 29 298 4.8 22.5 0.00 0.00 0.00 10 916.0
20260502001330 29 259 4.8 22.5 0.00 0.00 0.00 10 916.0
20260502001223 29 281 6.4 22.5 0.00 0.00 0.00 10 916.0
20260502001120 29 34 6.4 22.5 0.00 0.00 0.00 10 916.0
20260502001015 29 259 6.4 22.5 0.00 0.00 0.00 10 916.0
20260502000911 29 288 6.4 22.5 0.00 0.00 0.00 10 916.0
20260502000807 29 334 6.4 22.5 0.00 0.00 0.00 11 916.0
20260502000705 29 279 8.0 22.5 0.00 0.00 0.00 10 916.0
20260502000601 29 290 8.0 22.5 0.00 0.00 0.00 11 916.0
20260502000240 29 300 8.0 22.5 0.00 0.00 0.00 10 916.0
20260502000135 29 345 8.0 22.5 0.00 0.00 0.00 10 916.0
20260502000028 29 310 6.4 17.7 0.00 0.00 0.00 10 916.1
20260501235921 29 254 6.4 17.7 0.00 0.00 0.00 10 916.0
20260501235816 29 286 6.4 17.7 0.00 0.00 0.00 10 916.0
20260501235710 29 315 6.4 17.7 0.00 0.00 0.00 10 916.0
20260501235603 29 311 6.4 17.7 0.00 0.00 0.00 10 916.0
20260501235237 29 271 6.4 24.1 0.00 0.00 0.00 10 916.0
20260501235131 30 277 4.8 24.1 0.00 0.00 0.00 10 916.0
20260501235029 29 333 6.4 24.1 0.00 0.00 0.00 10 916.1
20260501234927 29 275 6.4 24.1 0.00 0.00 0.00 10 916.0
20260501234821 29 295 6.4 24.1 0.00 0.00 0.00 10 916.0
20260501234457 29 323 8.0 24.1 0.00 0.00 0.00 11 916.1
20260501234354 29 312 8.0 24.1 0.00 0.00 0.00 11 916.1
20260501234246 29 277 8.0 24.1 0.00 0.00 0.00 10 916.1
20260501234138 29 242 9.7 24.1 0.00 0.00 0.00 11 916.1
20260501234033 29 247 9.7 24.1 0.00 0.00 0.00 10 916.1
20260501233712 29 296 8.0 24.1 0.00 0.00 0.00 10 916.0
20260501233605 30 269 8.0 24.1 0.00 0.00 0.00 10 916.0
20260501233458 30 290 8.0 24.1 0.00 0.00 0.00 10 916.0
20260501233356 30 248 8.0 22.5 0.00 0.00 0.00 10 916.0
20260501233036 30 288 8.0 22.5 0.00 0.00 0.00 10 916.0
20260501232931 30 230 9.7 22.5 0.00 0.00 0.00 10 916.0
20260501232827 30 246 9.7 22.5 0.00 0.00 0.00 10 916.0
20260501232724 30 246 8.0 22.5 0.00 0.00 0.00 10 916.0
20260501232620 30 252 8.0 22.5 0.00 0.00 0.00 10 916.0
20260501232517 30 242 8.0 22.5 0.00 0.00 0.00 10 916.0
20260501231932 30 245 4.8 20.9 0.00 0.00 0.00 10 916.0
20260501231824 30 308 6.4 20.9 0.00 0.00 0.00 10 916.0
20260501231720 30 297 6.4 20.9 0.00 0.00 0.00 10 916.1
20260501231615 30 229 6.4 20.9 0.00 0.00 0.00 10 916.1
20260501231512 30 250 8.0 20.9 0.00 0.00 0.00 10 916.2
20260501231149 30 67 6.4 19.3 0.00 0.00 0.00 10 916.3
20260501231042 30 281 6.4 19.3 0.00 0.00 0.00 10 916.3
20260501230938 30 5 6.4 22.5 0.00 0.00 0.00 10 916.3
20260501230835 30 300 6.4 22.5 0.00 0.00 0.00 10 916.2
20260501230729 30 288 6.4 22.5 0.00 0.00 0.00 10 916.2
20260501230622 30 300 6.4 22.5 0.00 0.00 0.00 10 916.3
20260501230516 30 260 6.4 22.5 0.00 0.00 0.00 10 916.3
20260501230409 30 246 6.4 22.5 0.00 0.00 0.00 10 916.3
20260501230306 30 238 6.4 22.5 0.00 0.00 0.00 10 916.3
20260501230202 30 277 6.4 22.5 0.00 0.00 0.00 10 916.4
20260501225838 30 266 6.4 22.5 0.00 0.00 0.00 10 916.3
20260501225513 30 315 6.4 22.5 0.00 0.00 0.00 10 916.4
20260501225406 30 300 6.4 22.5 0.00 0.00 0.00 10 916.4
20260501225300 30 269 6.4 22.5 0.00 0.00 0.00 10 916.4
20260501225156 30 244 6.4 22.5 0.00 0.00 0.00 10 916.5
20260501224835 30 259 6.4 17.7 0.00 0.00 0.00 11 916.4
20260501224731 30 296 6.4 17.7 0.00 0.00 0.00 10 916.5
20260501224628 30 294 8.0 17.7 0.00 0.00 0.00 10 916.5
20260501224525 30 253 8.0 17.7 0.00 0.00 0.00 10 916.5
20260501224423 30 292 6.4 17.7 0.00 0.00 0.00 10 916.5
20260501224319 30 231 6.4 16.1 0.00 0.00 0.00 10 916.6
20260501224217 30 236 8.0 22.5 0.00 0.00 0.00 10 916.6
20260501224112 30 249 8.0 22.5 0.00 0.00 0.00 10 916.6
20260501224005 30 286 6.4 22.5 0.00 0.00 0.00 10 916.6
20260501223903 30 256 6.4 22.5 0.00 0.00 0.00 10 916.6
20260501223757 30 30 6.4 22.5 0.00 0.00 0.00 10 916.6
20260501223652 30 239 6.4 22.5 0.00 0.00 0.00 10 916.7
20260501223545 30 254 6.4 22.5 0.00 0.00 0.00 10 916.7
20260501223442 30 250 6.4 22.5 0.00 0.00 0.00 10 916.7
20260501223339 30 304 6.4 22.5 0.00 0.00 0.00 10 916.7
20260501223235 30 281 6.4 22.5 0.00 0.00 0.00 10 916.8
20260501223127 30 276 6.4 22.5 0.00 0.00 0.00 10 916.7
20260501223023 30 306 6.4 22.5 0.00 0.00 0.00 10 916.8
20260501222919 30 259 6.4 22.5 0.00 0.00 0.00 10 916.7
20260501222812 30 326 6.4 22.5 0.00 0.00 0.00 10 916.7
20260501222706 30 194 6.4 22.5 0.00 0.00 0.00 10 916.7
20260501222603 30 283 6.4 22.5 0.00 0.00 0.00 10 916.7
20260501222239 30 315 6.4 22.5 0.00 0.00 0.00 10 916.8
20260501221918 30 302 8.0 22.5 0.00 0.00 0.00 10 916.8
20260501221812 30 285 8.0 22.5 0.00 0.00 0.00 10 916.8
20260501221709 30 338 8.0 22.5 0.00 0.00 0.00 10 916.8
20260501221602 30 318 8.0 22.5 0.00 0.00 0.00 10 916.8
20260501221458 30 266 8.0 22.5 0.00 0.00 0.00 10 916.8
20260501221354 30 280 9.7 22.5 0.00 0.00 0.00 10 916.9
20260501221248 30 277 9.7 22.5 0.00 0.00 0.00 10 916.9
20260501221141 30 303 8.0 22.5 0.00 0.00 0.00 10 916.9
20260501221038 30 278 8.0 22.5 0.00 0.00 0.00 10 916.9
20260501220935 30 319 8.0 22.5 0.00 0.00 0.00 10 916.9
20260501220831 30 279 8.0 22.5 0.00 0.00 0.00 10 916.9
20260501220727 30 298 6.4 22.5 0.00 0.00 0.00 10 917.0
20260501220624 30 336 6.4 22.5 0.00 0.00 0.00 10 917.0
20260501220521 30 290 8.0 22.5 0.00 0.00 0.00 10 916.9
20260501220417 30 259 6.4 22.5 0.00 0.00 0.00 10 916.9
20260501220051 30 331 6.4 19.3 0.00 0.00 0.00 11 916.9
20260501215948 30 254 6.4 19.3 0.00 0.00 0.00 11 917.0
20260501215843 30 277 6.4 19.3 0.00 0.00 0.00 10 917.0
20260501215738 30 247 6.4 19.3 0.00 0.00 0.00 10 917.0
20260501215634 30 239 6.4 19.3 0.00 0.00 0.00 10 916.9
20260501215531 30 225 4.8 19.3 0.00 0.00 0.00 10 917.0
20260501215423 30 248 4.8 19.3 0.00 0.00 0.00 10 917.1
20260501215317 30 335 4.8 19.3 0.00 0.00 0.00 10 917.0
20260501215210 30 267 3.2 19.3 0.00 0.00 0.00 10 917.1
20260501214843 30 264 3.2 19.3 0.00 0.00 0.00 11 917.1
20260501214736 30 270 4.8 19.3 0.00 0.00 0.00 10 917.1
20260501214629 30 306 4.8 19.3 0.00 0.00 0.00 10 917.1
20260501214527 30 314 4.8 19.3 0.00 0.00 0.00 10 917.1
20260501214201 30 298 6.4 20.9 0.00 0.00 0.00 10 917.2
20260501214054 30 265 4.8 20.9 0.00 0.00 0.00 10 917.2
20260501213950 30 285 4.8 20.9 0.00 0.00 0.00 10 917.2
20260501213846 30 301 4.8 20.9 0.00 0.00 0.00 10 917.2
20260501213743 30 326 4.8 20.9 0.00 0.00 0.00 10 917.2
20260501213640 30 267 4.8 20.9 0.00 0.00 0.00 11 917.2
20260501213535 30 282 4.8 20.9 0.00 0.00 0.00 10 917.3
20260501213431 30 296 4.8 20.9 0.00 0.00 0.00 11 917.3
20260501213329 30 286 6.4 20.9 0.00 0.00 0.00 11 917.3
20260501213224 30 271 6.4 20.9 0.00 0.00 0.00 11 917.2
20260501213119 30 244 6.4 20.9 0.00 0.00 0.00 10 917.2
20260501213015 30 240 6.4 20.9 0.00 0.00 0.00 10 917.2
20260501212912 30 244 6.4 20.9 0.00 0.00 0.00 11 917.2
20260501212806 30 248 6.4 20.9 0.00 0.00 0.00 11 917.3
20260501212659 30 302 6.4 20.9 0.00 0.00 0.00 10 917.3
20260501212553 30 293 6.4 20.9 0.00 0.00 0.00 10 917.2
20260501212447 30 304 6.4 20.9 0.00 0.00 0.00 10 917.3
20260501212342 30 302 4.8 27.4 0.00 0.00 0.00 10 917.3
20260501211753 30 275 6.4 27.4 0.00 0.00 0.00 10 917.4
20260501211648 30 314 6.4 27.4 0.00 0.00 0.00 10 917.4
20260501211542 30 302 6.4 27.4 0.00 0.00 0.00 10 917.4
20260501211217 30 201 6.4 27.4 0.00 0.00 0.00 11 917.4
20260501211114 30 285 6.4 27.4 0.00 0.00 0.00 11 917.5
20260501211007 29 288 8.0 27.4 0.00 0.00 0.00 11 917.4
20260501210902 29 247 8.0 27.4 0.00 0.00 0.00 10 917.4
20260501210801 29 282 8.0 27.4 0.00 0.00 0.00 10 917.5
20260501210658 29 319 8.0 27.4 0.00 0.00 0.00 10 917.5
20260501210553 29 300 9.7 27.4 0.00 0.00 0.00 11 917.5
20260501210447 29 294 8.0 27.4 0.00 0.00 0.00 10 917.4
20260501210127 29 236 8.0 20.9 0.00 0.00 0.00 10 917.6
20260501210020 29 263 8.0 20.9 0.00 0.00 0.00 10 917.5
20260501205917 30 256 8.0 20.9 0.00 0.00 0.00 11 917.6
20260501205815 30 240 8.0 20.9 0.00 0.00 0.00 11 917.6
20260501205710 30 229 8.0 20.9 0.00 0.00 0.00 10 917.6
20260501205603 30 277 6.4 20.9 0.00 0.00 0.00 11 917.6
20260501205238 30 219 6.4 17.7 0.00 0.00 0.00 11 917.6
20260501205132 30 301 6.4 17.7 0.00 0.00 0.00 11 917.6
20260501205028 30 275 4.8 17.7 0.00 0.00 0.00 11 917.6
20260501204925 30 277 4.8 17.7 0.00 0.00 0.00 11 917.6
20260501204822 30 238 4.8 17.7 0.00 0.00 0.00 11 917.6
20260501204717 29 244 4.8 16.1 0.00 0.00 0.00 11 917.6
20260501204613 29 212 4.8 16.1 0.00 0.00 0.00 11 917.6
20260501204508 29 222 6.4 16.1 0.00 0.00 0.00 11 917.7
20260501204405 29 242 6.4 17.7 0.00 0.00 0.00 11 917.7
20260501204258 29 247 6.4 17.7 0.00 0.00 0.00 11 917.7
20260501204155 29 232 8.0 17.7 0.00 0.00 0.00 11 917.7
20260501204048 29 259 8.0 17.7 0.00 0.00 0.00 10 917.7
20260501203946 29 5 8.0 17.7 0.00 0.00 0.00 11 917.7
20260501203843 29 312 8.0 17.7 0.00 0.00 0.00 10 917.7
20260501203737 29 306 8.0 17.7 0.00 0.00 0.00 11 917.7
20260501203415 29 242 8.0 19.3 0.00 0.00 0.00 11 917.7
20260501203052 30 280 6.4 19.3 0.00 0.00 0.00 11 917.6
20260501202946 30 294 8.0 19.3 0.00 0.00 0.00 11 917.7
20260501202841 30 302 8.0 19.3 0.00 0.00 0.00 11 917.7
20260501202738 30 232 8.0 19.3 0.00 0.00 0.00 11 917.7
20260501202632 30 274 8.0 19.3 0.00 0.00 0.00 11 917.7
20260501202524 30 0 8.0 19.3 0.00 0.00 0.00 12 917.6
20260501202420 30 265 6.4 20.9 0.00 0.00 0.00 11 917.7
20260501202315 30 254 6.4 20.9 0.00 0.00 0.00 12 917.7
20260501202209 30 252 4.8 20.9 0.00 0.00 0.00 12 917.7
20260501202107 30 286 4.8 20.9 0.00 0.00 0.00 12 917.7
20260501202002 30 245 4.8 20.9 0.00 0.00 0.00 12 917.7
20260501201858 30 261 4.8 20.9 0.00 0.00 0.00 12 917.8
20260501201752 30 227 4.8 20.9 0.00 0.00 0.00 12 917.7
20260501201649 29 232 4.8 20.9 0.00 0.00 0.00 12 917.7
20260501201542 29 231 4.8 20.9 0.00 0.00 0.00 12 917.8
20260501201436 29 302 6.4 20.9 0.00 0.00 0.00 12 917.8
20260501201115 29 334 8.0 20.9 0.00 0.00 0.00 12 917.8
20260501201011 29 293 8.0 20.9 0.00 0.00 0.00 12 917.8
20260501200909 29 281 8.0 20.9 0.00 0.00 0.00 12 917.8
20260501200807 29 282 6.4 20.9 0.00 0.00 0.00 12 917.9
20260501200701 29 233 6.4 20.9 0.00 0.00 0.00 12 917.9
20260501200557 29 206 6.4 20.9 0.00 0.00 0.00 11 917.9
20260501200452 29 223 4.8 20.9 0.00 0.00 0.00 11 917.9
20260501200130 29 264 4.8 19.3 0.00 0.00 0.00 13 917.9
20260501200025 29 227 4.8 19.3 0.00 0.00 0.00 13 917.9
20260501195921 29 243 6.4 19.3 0.00 0.00 0.00 12 917.9
20260501195816 29 235 6.4 19.3 0.00 0.00 0.00 13 917.9
20260501195711 29 278 6.4 19.3 0.00 0.00 0.00 13 918.0
20260501195603 29 252 6.4 19.3 0.00 0.00 0.00 13 918.0
20260501195500 29 229 6.4 19.3 0.00 0.00 0.00 13 918.0
20260501195355 29 234 8.0 19.3 0.00 0.00 0.00 13 918.0
20260501195253 29 219 8.0 19.3 0.00 0.00 0.00 13 918.0
20260501195150 29 219 8.0 19.3 0.00 0.00 0.00 13 918.0
20260501195048 29 204 6.4 19.3 0.00 0.00 0.00 13 917.9
20260501194943 29 169 6.4 19.3 0.00 0.00 0.00 13 917.9
20260501194840 29 199 6.4 19.3 0.00 0.00 0.00 13 918.0
20260501194737 29 196 6.4 19.3 0.00 0.00 0.00 13 918.0
20260501194632 29 186 6.4 19.3 0.00 0.00 0.00 13 918.0
20260501194530 29 200 4.8 19.3 0.00 0.00 0.00 13 918.0
20260501194203 29 313 1.6 12.9 0.00 0.00 0.00 13 918.1
20260501193841 29 348 1.6 9.7 0.00 0.00 0.00 13 918.1
20260501193736 29 290 1.6 9.7 0.00 0.00 0.00 13 918.2
20260501193632 28 355 3.2 9.7 0.00 0.00 0.00 13 918.1
20260501193528 28 304 3.2 17.7 0.00 0.00 0.00 13 918.2
20260501193425 28 267 3.2 17.7 0.00 0.00 0.00 13 918.2
20260501193319 28 257 3.2 17.7 0.00 0.00 0.00 14 918.2
20260501192736 28 251 4.8 17.7 0.00 0.00 0.00 13 918.3
20260501192629 28 301 4.8 17.7 0.00 0.00 0.00 14 918.3
20260501192523 28 343 6.4 17.7 0.00 0.00 0.00 14 918.3
20260501192421 28 248 6.4 17.7 0.00 0.00 0.00 14 918.4
20260501192316 28 271 6.4 17.7 0.00 0.00 0.00 13 918.4
20260501192211 28 302 4.8 17.7 0.00 0.00 0.00 14 918.3
20260501192108 28 217 4.8 17.7 0.00 0.00 0.00 14 918.3
20260501192006 28 227 4.8 17.7 0.00 0.00 0.00 14 918.4
20260501191904 28 229 4.8 17.7 0.00 0.00 0.00 13 918.4
20260501191756 28 215 4.8 17.7 0.00 0.00 0.00 13 918.4
20260501191651 28 217 4.8 17.7 0.00 0.00 0.00 13 918.4
20260501191544 28 223 4.8 17.7 0.00 0.00 0.00 13 918.5
20260501191439 28 257 4.8 17.7 0.00 0.00 0.00 13 918.5
20260501191332 28 246 4.8 17.7 0.00 0.00 0.00 14 918.5
20260501191231 28 14 4.8 17.7 0.00 0.00 0.00 14 918.5
20260501191124 28 246 4.8 17.7 0.00 0.00 0.00 14 918.5
20260501191022 28 258 6.4 17.7 0.00 0.00 0.00 14 918.5
20260501190657 28 246 4.8 17.7 0.00 0.00 0.00 14 918.5
20260501190552 28 306 6.4 17.7 0.00 0.00 0.00 14 918.5
20260501190450 28 256 6.4 17.7 0.00 0.00 0.00 14 918.5
20260501190343 28 252 6.4 17.7 0.00 0.00 0.00 14 918.6
20260501190238 28 261 6.4 17.7 0.00 0.00 0.00 14 918.5
20260501190135 28 237 6.4 17.7 0.00 0.00 0.00 14 918.6
20260501190028 28 227 4.8 17.7 0.00 0.00 0.00 14 918.6
20260501185922 28 219 4.8 17.7 0.00 0.00 0.00 14 918.6
20260501185815 28 277 4.8 17.7 0.00 0.00 0.00 14 918.6
20260501185713 28 295 4.8 17.7 0.00 0.00 0.00 14 918.6
20260501185609 28 279 3.2 17.7 0.00 0.00 0.00 14 918.6
20260501185503 28 227 1.6 16.1 0.00 0.00 0.00 14 918.6
20260501185358 28 255 1.6 12.9 0.00 0.00 0.00 13 918.6
20260501184814 28 226 3.2 12.9 0.00 0.00 0.00 13 918.7
20260501184712 28 269 3.2 12.9 0.00 0.00 0.00 13 918.7
20260501184344 28 267 3.2 12.9 0.00 0.00 0.00 14 918.8
20260501184021 28 265 1.6 12.9 0.00 0.00 0.00 14 918.8
20260501183914 28 211 1.6 12.9 0.00 0.00 0.00 14 918.8
20260501183549 28 315 4.8 12.9 0.00 0.00 0.00 14 918.8
20260501183011 27 257 3.2 12.9 0.00 0.00 0.00 14 919.0
20260501182908 27 206 3.2 12.9 0.00 0.00 0.00 14 919.0
20260501182802 27 225 3.2 12.9 0.00 0.00 0.00 14 919.0
20260501182440 27 324 3.2 11.3 0.00 0.00 0.00 13 919.0
20260501182119 27 319 3.2 11.3 0.00 0.00 0.00 14 919.1
20260501182013 27 307 3.2 11.3 0.00 0.00 0.00 14 919.2
20260501181909 27 246 3.2 11.3 0.00 0.00 0.00 14 919.1
20260501181806 27 248 3.2 14.5 0.00 0.00 0.00 15 919.1
20260501181701 27 236 3.2 14.5 0.00 0.00 0.00 14 919.1
20260501181554 27 250 3.2 14.5 0.00 0.00 0.00 14 919.1
20260501181452 27 266 3.2 14.5 0.00 0.00 0.00 14 919.1
20260501181345 27 230 3.2 14.5 0.00 0.00 0.00 14 919.1
20260501181241 27 201 3.2 14.5 0.00 0.00 0.00 15 919.1
20260501181135 27 245 3.2 14.5 0.00 0.00 0.00 14 919.1
20260501180809 27 309 4.8 14.5 0.00 0.00 0.00 14 919.1
20260501180707 27 328 4.8 14.5 0.00 0.00 0.00 15 919.1
20260501180602 27 351 4.8 14.5 0.00 0.00 0.00 15 919.2
20260501180459 27 265 4.8 14.5 0.00 0.00 0.00 15 919.1
20260501180137 27 289 3.2 14.5 0.00 0.00 0.00 15 919.2
20260501180033 27 297 3.2 14.5 0.00 0.00 0.00 15 919.2
20260501175929 26 243 3.2 14.5 0.00 0.00 0.00 15 919.2
20260501175824 26 226 1.6 14.5 0.00 0.00 0.00 15 919.2
20260501175719 26 229 3.2 9.7 0.00 0.00 0.00 15 919.2
20260501175613 26 0 3.2 9.7 0.00 0.00 0.00 15 919.2
20260501175506 26 244 3.2 11.3 0.00 0.00 0.00 15 919.2
20260501175142 26 304 1.6 11.3 0.00 0.00 0.00 15 919.2
20260501175037 26 304 3.2 11.3 0.00 0.00 0.00 15 919.2
20260501174933 26 291 3.2 11.3 0.00 0.00 0.00 16 919.2
20260501174829 26 281 3.2 11.3 0.00 0.00 0.00 16 919.2
20260501174726 26 301 3.2 11.3 0.00 0.00 0.00 15 919.2
20260501174623 26 258 3.2 11.3 0.00 0.00 0.00 16 919.2
20260501174518 26 286 3.2 11.3 0.00 0.00 0.00 16 919.2
20260501174154 26 244 3.2 11.3 0.00 0.00 0.00 16 919.2
20260501173610 26 242 1.6 11.3 0.00 0.00 0.00 15 919.2
20260501173506 26 226 1.6 6.4 0.00 0.00 0.00 17 919.2
20260501173403 26 302 1.6 4.8 0.00 0.00 0.00 16 919.3
20260501173258 25 337 1.6 4.8 0.00 0.00 0.00 15 919.3
20260501172935 25 61 1.6 6.4 0.00 0.00 0.00 15 919.2
20260501172352 26 30 1.6 6.4 0.00 0.00 0.00 15 919.2
20260501172249 26 5 1.6 6.4 0.00 0.00 0.00 14 919.2
20260501172146 26 32 1.6 6.4 0.00 0.00 0.00 14 919.2